This is the latest recevied weather packets stored in our database for station/object W5ALL-WX. If no packets are shown the sender has not sent any weather packets the latest 10 day(s).
| Time | Temp. | Humidity | Pressure | Rain* | Wind** | Luminosity | Snow |
|---|---|---|---|---|---|---|---|
| 1777405927 | 27.22° C | 5% | 1016.1 hPa | 0 mm | - | - | - |
| 1777405627 | 27.22° C | 5% | 1016.2 hPa | 0 mm | - | - | - |
| 1777405327 | 26.67° C | 5% | 1016.3 hPa | 0 mm | - | - | - |
| 1777405027 | 26.67° C | 6% | 1016.4 hPa | 0 mm | - | - | - |
| 1777404727 | 26.67° C | 6% | 1016.4 hPa | 0 mm | - | - | - |
| 1777404426 | 26.67° C | 6% | 1016.6 hPa | 0 mm | - | - | - |
| 1777404127 | 26.67° C | 6% | 1016.4 hPa | 0 mm | - | - | - |
| 1777403826 | 26.11° C | 6% | 1016.4 hPa | 0 mm | - | - | - |
| 1777403526 | 26.11° C | 6% | 1016.6 hPa | 0 mm | - | - | - |
| 1777403226 | 26.11° C | 6% | 1016.4 hPa | 0 mm | - | - | - |
| 1777402926 | 25.56° C | 6% | 1016.4 hPa | 0 mm | - | - | - |
| 1777402626 | 25.56° C | 6% | 1016.7 hPa | 0 mm | - | - | - |
| 1777402326 | 25° C | 6% | 1016.8 hPa | 0 mm | - | - | - |
| 1777402026 | 25° C | 6% | 1016.8 hPa | 0 mm | - | - | - |
| 1777401726 | 25.56° C | 6% | 1016.9 hPa | 0 mm | - | - | - |
| 1777401426 | 25.56° C | 6% | 1017 hPa | 0 mm | - | - | - |
| 1777401130 | 26.11° C | 6% | 1016.9 hPa | 0 mm | - | - | - |
| 1777400826 | 25.56° C | 7% | 1016.9 hPa | 0 mm | - | - | - |
| 1777400526 | 25.56° C | 7% | 1017 hPa | 0 mm | - | - | - |
| 1777400226 | 26.11° C | 6% | 1017.1 hPa | 0 mm | - | - | - |
| 1777399926 | 25.56° C | 7% | 1017.3 hPa | 0 mm | - | - | - |
| 1777399626 | 25.56° C | 7% | 1017.3 hPa | 0 mm | - | - | - |
| 1777399326 | 25.56° C | 7% | 1017.4 hPa | 0 mm | - | - | - |
| 1777399026 | 25.56° C | 6% | 1017.5 hPa | 0 mm | - | - | - |
| 1777398726 | 25° C | 6% | 1017.6 hPa | 0 mm | - | - | - |
* Rain latest hour (hover to see other rain measurements)
** Current wind speed in m/s (hover to see current wind gust speed)